CAPE
0 0 0 0 0 0 0 0 0 0 0 0 70 287 876 1575 1244 607 744 538 359 550 916 1317 1645 1878 1959 2035 2031 2047 2159 2145 2009 1915 1798 1751 1744 1762 1821 1922 1912 1777 1258 1258 1201 1020 827 645 475
0 0 0 0 0 0 0 0 0 0 0 0 1369 1431 1782 1960 2024 1287 947 881 468 610 923 1116 1503 1750 1972 2029 2059 2145 2202 2092 2034 2007 1998 1928 1847 1793 1678 1679 1678 1750 1537 1631 1443 1107 764 478 313
0 0 0 0 0 0 0 0 0 0 0 0 403 1821 1943 1790 1870 1153 1033 949 662 602 801 1074 1356 1628 1849 1943 2050 2138 2146 2014 1979 2003 2123 2092 1919 1840 1695 1652 1729 1980 2061 1724 1258 783 514 398 357
0 0 0 0 0 0 0 0 0 0 0 0 933 1963 2037 1829 1865 1408 1080 1211 916 852 874 1122 1209 1499 1758 1909 2052 2090 1959 1826 1805 1879 2068 2009 1742 1573 1398 1408 1524 1827 1767 1552 1242 839 553 401 289
0 0 0 0 0 0 0 0 0 0 0 0 727 2041 2075 1667 1186 1074 1101 1202 1336 1398 1183 1061 1168 1415 1706 1957 2011 1819 1643 1500 1543 1763 1914 1977 1830 1446 1455 1420 1600 1687 1785 1532 1151 713 379 161 18
0 0 0 0 0 0 0 0 0 0 0 0 1960 1940 1886 1455 1230 1020 663 943 1246 1314 1150 1156 1295 1448 1601 1797 1710 1419 1306 1186 1276 1546 1851 1897 1647 1343 1089 1070 1123 1176 1060 754 468 193 60 3 0
0 0 0 0 0 0 0 0 0 0 0 0 2002 1976 1825 1698 1328 1058 943 993 935 1117 1153 1187 1346 1484 1541 1585 1430 1242 1178 1029 1216 1591 1569 1303 953 785 757 632 570 474 305 175 42 2 0 0 0
0 0 0 0 0 0 0 0 0 0 0 186 1236 1166 1725 1673 1241 928 851 882 974 934 999 1076 1095 1213 1209 1199 1347 1218 1101 985 1025 941 782 614 446 387 324 230 152 35 0 0 0 0 0 0 0
0 0 0 0 0 0 0 0 0 0 0 966 1507 1734 1566 1573 1262 1016 966 717 625 624 818 731 803 781 684 779 982 914 805 767 654 547 374 166 11 18 22 0 2 0 0 0 0 0 0 0 0
0 0 0 0 0 0 0 0 0 0 0 685 1483 1504 1374 1455 1415 1275 1237 862 782 728 425 491 406 404 398 692 699 701 648 484 312 127 33 0 0 0 0 0 0 0 0 0 0 0 0 0 0
0 0 0 0 0 0 0 0 0 0 0 0 44 1536 957 1126 936 1115 1472 1354 1171 827 775 390 268 145 332 506 235 338 141 47 21 1 0 0 0 0 0 0 0 0 0 0 0 0 0 0 0
0 0 0 0 0 0 0 0 0 0 0 0 22 1436 1365 1112 1026 931 943 1146 1262 955 694 597 244 110 70 67 100 95 92 0 1 0 0 0 0 0 0 0 0 0 0 0 0 0 0 0 0
0 0 0 0 0 0 0 0 0 0 0 0 1505 1548 1497 1532 1494 1290 951 906 756 641 601 676 287 176 67 24 0 0 0 1 0 0 0 0 0 0 0 0 0 0 0 0 0 0 0 0 0
0 0 0 0 0 0 0 0 0 0 0 0 1733 1562 1407 1475 1470 1332 950 781 733 782 781 775 421 225 0 1 0 0 0 0 0 0 0 0 0 0 0 0 0 0 0 0 0 0 0 0 0
0 0 0 0 0 0 0 0 0 0 0 0 23 1158 1423 1354 1355 1197 1113 946 768 776 786 798 588 251 2 0 0 0 0 0 0 0 0 0 0 0 0 0 0 0 0 0 0 0 0 0 0
0 0 0 0 0 0 0 0 0 0 0 0 0 0 523 1136 1245 1170 987 992 790 714 678 682 934 475 61 0 0 0 0 0 0 0 0 0 0 0 0 0 0 0 0 0 0 0 0 0 0
0 0 0 0 0 0 0 0 0 0 0 0 0 0 0 0 240 904 874 730 781 733 736 656 895 808 313 0 0 0 0 0 0 0 0 0 0 0 0 0 0 0 0 0 0 0 0 0 0
0 0 0 0 0 0 0 0 0 0 0 0 0 0 0 0 0 0 316 685 689 716 736 733 794 930 514 0 0 0 0 0 0 0 0 0 0 0 0 0 0 0 0 0 0 0 0 0 0
0 0 0 0 0 0 0 0 0 0 0 0 0 0 0 0 0 0 0 0 562 647 614 692 762 1014 601 60 0 0 0 0 0 0 0 0 0 0 0 0 0 0 0 0 0 0 0 0 0
0 0 0 0 0 0 0 0 0 0 0 0 0 0 0 0 0 0 0 0 0 0 53 643 798 958 649 295 0 0 0 0 0 0 0 0 0 0 0 0 0 0 0 0 0 0 0 0 0
0 0 0 0 0 0 0 0 0 0 0 0 0 0 0 0 0 0 0 0 0 0 0 0 796 942 689 419 0 0 0 0 0 0 0 0 0 0 0 0 0 0 0 0 0 0 0 0 0
0 0 0 0 0 0 0 0 0 0 0 0 0 0 0 0 0 0 0 0 0 0 0 0 21 1001 575 375 0 0 0 0 0 0 0 0 0 0 0 0 0 0 0 0 0 0 0 0 0
0 0 0 0 0 0 0 0 0 0 0 0 0 0 0 0 0 0 0 0 0 0 0 0 0 681 291 248 0 0 0 0 0 0 0 0 0 0 0 0 0 0 0 0 0 0 0 0 0
0 0 0 0 0 0 0 0 0 0 0 0 0 0 0 0 0 0 0 0 0 0 0 0 0 0 0 0 0 0 0 0 0 0 0 0 0 0 0 0 0 0 0 0 0 0 0 0 0
0 0 0 0 0 0 0 0 0 0 0 0 0 0 0 0 0 0 0 0 0 0 0 0 0 0 0 0 0 0 0 0 0 0 0 0 0 0 0 0 0 0 0 0 0 0 0 0 0
0 0 0 0 0 0 0 0 0 0 0 0 0 0 0 0 0 0 0 0 0 0 0 0 0 0 0 0 0 0 0 0 0 0 0 0 0 0 0 0 0 0 0 0 0 0 0 0 0
0 0 0 0 0 0 0 0 0 0 0 0 0 0 0 0 0 0 0 0 0 0 0 0 0 0 0 0 0 0 0 0 0 0 0 0 0 0 0 0 0 0 0 0 0 0 0 0 0
0 0 0 0 0 0 0 0 0 0 0 0 0 0 0 0 0 0 0 0 0 0 0 0 0 0 0 0 0 0 0 0 1 0 1 0 0 0 0 0 0 0 0 0 0 0 0 0 0
0 0 0 0 0 0 0 0 0 0 0 0 0 0 0 0 0 0 0 0 0 0 0 0 0 0 0 0 0 0 0 0 0 0 0 0 0 0 0 0 0 0 0 0 0 0 0 0 0
0 0 0 0 0 0 0 0 0 0 0 0 0 0 0 0 0 0 0 0 0 0 0 0 0 0 0 0 0 0 0 0 0 0 0 0 0 0 0 0 0 0 0 0 0 0 0 0 0
CIN
0 0 0 0 0 0 0 0 0 0 0 0 -260 -211 -162 -258 -133 -100 -671 -710 -881 -826 -617 -430 -299 -204 -177 -149 -115 -132 -134 -138 -151 -125 -96 -67 -35 -17 -2 0 0 0 -8 -3 -1 -9 -26 -48 -47
0 0 0 0 0 0 0 0 0 0 0 0 -135 -214 -209 -178 -325 -518 -592 -653 -749 -746 -623 -501 -330 -209 -161 -158 -107 -92 -113 -144 -151 -131 -92 -60 -36 -13 -10 -3 0 0 0 0 0 0 -20 -59 -66
0 0 0 0 0 0 0 0 0 0 0 0 -136 -179 -204 -261 -367 -557 -632 -654 -667 -652 -606 -498 -363 -214 -132 -146 -101 -82 -109 -153 -154 -129 -88 -60 -44 -21 -12 -4 -1 0 0 0 0 -14 -45 -57 -59
0 0 0 0 0 0 0 0 0 0 0 0 -131 -127 -268 -369 -338 -481 -612 -551 -577 -540 -524 -445 -375 -271 -172 -127 -81 -81 -123 -163 -173 -134 -94 -84 -79 -70 -64 -28 -3 0 0 0 0 -9 -27 -48 -78
0 0 0 0 0 0 0 0 0 0 0 0 -120 -142 -240 -373 -506 -583 -556 -492 -447 -386 -399 -387 -345 -260 -163 -92 -83 -134 -170 -205 -195 -146 -109 -90 -73 -89 -54 -27 -5 0 0 0 0 -13 -78 -163 -204
0 0 0 0 0 0 0 0 0 0 0 0 -119 -198 -240 -369 -420 -486 -578 -485 -392 -388 -396 -353 -289 -248 -172 -108 -126 -211 -246 -260 -228 -155 -102 -86 -91 -90 -100 -67 -37 -22 -15 -58 -101 -180 -276 -101 0
0 0 0 0 0 0 0 0 0 0 0 0 -184 -174 -247 -287 -377 -439 -459 -424 -422 -363 -359 -334 -269 -215 -183 -161 -188 -226 -243 -280 -220 -120 -118 -150 -184 -190 -155 -140 -147 -161 -174 -223 -291 -79 0 0 0
0 0 0 0 0 0 0 0 0 0 0 -206 -250 -218 -230 -350 -412 -465 -443 -410 -369 -379 -356 -336 -327 -296 -280 -260 -215 -232 -249 -275 -268 -250 -278 -291 -303 -294 -263 -281 -274 -342 0 0 0 0 0 0 0
0 0 0 0 0 0 0 0 0 0 0 -256 -308 -266 -304 -385 -410 -421 -373 -435 -452 -440 -382 -403 -378 -397 -430 -395 -329 -334 -350 -344 -377 -375 -426 -487 -500 -374 -332 0 -318 0 0 0 0 0 0 0 0
0 0 0 0 0 0 0 0 0 0 0 -169 -260 -329 -369 -333 -331 -345 -337 -400 -397 -388 -482 -470 -488 -492 -507 -404 -404 -404 -397 -456 -508 -571 -651 0 0 0 0 0 0 0 0 0 0 0 0 0 0
0 0 0 0 0 0 0 0 0 0 0 0 -39 -330 -372 -323 -340 -301 -273 -331 -378 -424 -388 -477 -502 -568 -497 -447 -568 -538 -605 -662 -692 -110 0 0 0 0 0 0 0 0 0 0 0 0 0 0 0
0 0 0 0 0 0 0 0 0 0 0 0 -15 -354 -344 -339 -332 -365 -349 -336 -309 -365 -431 -452 -536 -581 -604 -596 -574 -564 -565 0 0 0 0 0 0 0 0 0 0 0 0 0 0 0 0 0 0
0 0 0 0 0 0 0 0 0 0 0 0 -238 -289 -318 -299 -309 -322 -341 -319 -345 -400 -434 -414 -524 -596 -662 -679 0 0 0 0 0 0 0 0 0 0 0 0 0 0 0 0 0 0 0 0 0
0 0 0 0 0 0 0 0 0 0 0 0 -209 -264 -300 -281 -312 -308 -329 -385 -395 -390 -414 -379 -472 -526 0 -15 0 0 0 0 0 0 0 0 0 0 0 0 0 0 0 0 0 0 0 0 0
0 0 0 0 0 0 0 0 0 0 0 0 -42 -216 -258 -322 -299 -310 -409 -419 -448 -451 -401 -428 -427 -506 -151 0 0 0 0 0 0 0 0 0 0 0 0 0 0 0 0 0 0 0 0 0 0
0 0 0 0 0 0 0 0 0 0 0 0 0 0 -259 -306 -343 -408 -424 -444 -465 -450 -496 -447 -344 -430 -624 0 0 0 0 0 0 0 0 0 0 0 0 0 0 0 0 0 0 0 0 0 0
0 0 0 0 0 0 0 0 0 0 0 0 0 0 0 0 -220 -399 -475 -493 -464 -493 -473 -474 -407 -431 -549 0 0 0 0 0 0 0 0 0 0 0 0 0 0 0 0 0 0 0 0 0 0
0 0 0 0 0 0 0 0 0 0 0 0 0 0 0 0 0 0 -442 -464 -481 -513 -504 -484 -418 -354 -415 0 0 0 0 0 0 0 0 0 0 0 0 0 0 0 0 0 0 0 0 0 0
0 0 0 0 0 0 0 0 0 0 0 0 0 0 0 0 0 0 0 0 -337 -339 -322 -344 -392 -370 -388 -568 0 0 0 0 0 0 0 0 0 0 0 0 0 0 0 0 0 0 0 0 0
0 0 0 0 0 0 0 0 0 0 0 0 0 0 0 0 0 0 0 0 0 0 -279 -281 -265 -233 -369 -466 0 0 0 0 0 0 0 0 0 0 0 0 0 0 0 0 0 0 0 0 0
0 0 0 0 0 0 0 0 0 0 0 0 0 0 0 0 0 0 0 0 0 0 0 0 -262 -257 -313 -354 0 0 0 0 0 0 0 0 0 0 0 0 0 0 0 0 0 0 0 0 0
0 0 0 0 0 0 0 0 0 0 0 0 0 0 0 0 0 0 0 0 0 0 0 0 -157 -199 -252 -318 0 0 0 0 0 0 0 0 0 0 0 0 0 0 0 0 0 0 0 0 0
0 0 0 0 0 0 0 0 0 0 0 0 0 0 0 0 0 0 0 0 0 0 0 0 0 -181 -320 -320 0 0 0 0 0 0 0 0 0 0 0 0 0 0 0 0 0 0 0 0 0
0 0 0 0 0 0 0 0 0 0 0 0 0 0 0 0 0 0 0 0 0 0 0 0 0 0 0 0 0 0 0 0 0 0 0 0 0 0 0 0 0 0 0 0 0 0 0 0 0
0 0 0 0 0 0 0 0 0 0 0 0 0 0 0 0 0 0 0 0 0 0 0 0 0 0 0 0 0 0 0 0 0 0 0 0 0 0 0 0 0 0 0 0 0 0 0 0 0
0 0 0 0 0 0 0 0 0 0 0 0 0 0 0 0 0 0 0 0 0 0 0 0 0 0 0 0 0 0 0 0 0 0 0 0 0 0 0 0 0 0 0 0 0 0 0 0 0
0 0 0 0 0 0 0 0 0 0 0 0 0 0 0 0 0 0 0 0 0 0 0 0 0 0 0 0 0 0 0 0 0 0 0 0 0 0 0 0 0 0 0 0 0 0 0 0 0
0 0 0 0 0 0 0 0 0 0 0 0 0 0 0 0 0 0 0 0 0 0 0 0 0 0 0 0 0 0 0 0 0 0 0 0 0 0 0 0 0 0 0 0 0 0 0 0 0
0 0 0 0 0 0 0 0 0 0 0 0 0 0 0 0 0 0 0 0 0 0 0 0 0 0 0 0 0 0 0 0 0 0 0 0 0 0 0 0 0 0 0 0 0 0 0 0 0
0 0 0 0 0 0 0 0 0 0 0 0 0 0 0 0 0 0 0 0 0 0 0 0 0 0 0 0 0 0 0 0 0 0 0 0 0 0 0 0 0 0 0 0 0 0 0 0 0
Wind_Speed
1 3 2 4 5 6 4 8 4 7 7 5 4 6 5 3 4 5 3 4 13 17 13 12 14 14 14 13 12 13 15 17 18 18 17 16 14 14 13 12 11 11 12 12 11 10 9 9 9
4 3 4 3 5 3 6 5 7 7 4 9 4 4 4 1 2 3 4 4 13 16 14 13 15 14 14 15 13 12 14 16 17 17 17 15 14 12 12 11 9 9 11 11 11 9 8 7 8
1 2 3 4 3 5 5 5 7 16 16 5 1 5 3 1 5 5 3 11 13 13 12 13 16 13 12 13 12 12 13 14 15 16 16 15 14 13 13 10 9 8 12 12 11 9 7 6 6
2 4 4 3 5 7 6 11 11 9 11 4 3 5 3 3 3 5 9 13 13 11 9 12 14 14 13 13 12 12 12 12 14 14 15 15 14 13 11 10 10 9 10 12 11 9 7 5 4
4 3 1 2 4 4 7 9 12 14 4 5 2 3 3 6 4 11 11 11 13 9 7 10 12 13 13 13 13 12 12 11 12 13 13 14 13 12 11 10 10 10 10 11 10 9 7 4 4
4 3 2 3 4 5 8 8 6 5 4 2 5 5 1 5 3 4 6 6 8 13 10 9 11 12 12 12 11 11 11 10 10 10 12 13 13 11 11 10 10 10 10 10 10 8 6 4 7
6 4 5 4 5 8 6 6 5 6 5 1 8 5 2 2 1 5 7 6 7 7 10 9 9 10 10 10 10 10 10 10 8 11 11 11 11 11 10 10 10 11 10 10 9 8 7 6 10
5 4 4 4 2 9 7 8 5 6 5 3 3 5 6 7 8 7 6 9 8 6 7 9 8 8 7 7 10 10 9 9 12 12 12 11 11 10 9 9 9 10 9 10 10 7 6 8 10
4 2 4 4 4 7 7 5 9 3 2 4 5 3 3 14 12 12 8 6 7 7 8 8 7 7 7 7 8 11 11 12 12 10 12 10 5 6 8 8 8 9 8 8 8 7 6 7 8
5 4 7 7 5 7 9 3 9 6 3 2 2 5 11 15 13 14 13 13 11 12 11 8 8 8 8 7 7 8 7 5 5 5 6 5 6 5 6 7 8 8 7 5 5 5 6 8 4
3 6 6 6 8 6 5 9 7 6 3 6 6 9 12 12 14 15 14 16 17 14 11 10 9 9 9 7 5 4 4 4 4 6 6 5 5 4 3 3 3 3 5 2 2 3 4 7 6
3 7 5 6 6 4 3 5 7 3 7 5 7 14 17 17 15 17 17 17 16 15 17 14 12 10 8 5 5 4 4 4 4 5 6 5 4 4 4 3 3 4 3 4 2 2 5 6 7
6 6 5 6 10 7 6 7 9 7 12 4 6 9 15 15 16 13 10 11 14 16 17 16 14 14 10 8 6 4 5 5 4 3 4 4 4 4 4 4 4 3 4 4 4 3 4 6 7
3 6 8 7 9 6 7 7 2 6 8 6 9 13 14 16 20 11 8 13 18 16 18 14 16 13 11 10 10 8 6 6 5 5 5 5 4 4 4 4 5 4 4 4 5 5 5 5 7
4 8 10 6 6 7 7 10 6 9 8 10 11 13 14 16 13 17 20 18 19 17 12 17 15 13 13 11 9 8 7 6 6 5 6 7 6 6 6 4 3 4 4 6 5 4 4 5 6
5 3 6 3 4 5 5 8 10 8 5 12 12 8 13 16 19 20 18 16 15 14 17 14 13 14 13 14 11 8 7 6 5 4 4 6 6 7 5 4 4 5 4 3 4 4 4 5 7
4 6 7 7 5 2 2 5 9 8 6 9 9 9 6 10 11 16 16 17 16 18 16 17 18 19 17 12 8 8 7 7 7 7 8 9 8 7 6 5 5 6 4 4 5 2 4 4 4
6 6 5 9 1 4 6 10 11 9 6 8 9 9 9 5 12 14 10 12 15 17 18 16 14 15 14 9 7 5 6 8 8 9 8 10 8 7 6 4 5 5 5 4 3 4 3 3 6
4 5 9 13 11 3 15 8 9 11 7 9 10 7 9 10 10 14 14 9 4 5 9 12 14 17 13 12 12 10 13 9 7 7 9 10 9 10 9 5 6 6 5 4 5 4 5 3 4
8 12 15 13 11 3 7 9 10 9 8 4 8 11 12 13 16 14 13 14 13 10 7 9 14 14 15 13 12 8 9 4 7 5 7 11 12 11 9 9 8 8 6 9 8 6 4 3 5
12 14 13 10 6 5 4 9 8 3 3 12 13 8 11 11 11 13 14 9 10 13 12 11 14 17 16 14 9 3 6 4 3 6 8 9 10 11 10 11 10 9 7 8 8 8 8 6 5
14 9 12 8 3 5 1 7 4 5 7 12 11 11 10 12 13 14 16 16 13 9 8 10 12 14 12 12 10 13 12 11 8 8 6 6 10 12 12 11 10 10 7 8 8 6 5 7 11
10 12 10 6 5 3 2 2 6 4 4 7 8 9 9 9 10 12 13 13 13 13 13 10 13 4 9 10 10 8 10 7 4 6 10 10 9 11 11 13 11 9 7 7 8 7 6 3 7
3 4 5 4 3 7 9 8 5 1 2 2 1 4 5 6 6 5 3 5 9 11 14 14 11 8 9 4 7 12 11 7 6 9 10 9 7 4 6 8 8 7 6 6 5 5 7 5 4
4 6 1 3 2 8 4 6 1 4 3 5 2 2 4 4 3 5 6 7 7 8 8 7 11 9 6 5 5 7 7 11 12 11 10 12 9 7 10 10 10 10 9 8 8 8 7 6 5
8 10 7 8 6 3 4 7 4 6 5 4 2 3 3 4 5 5 5 6 6 7 6 6 5 6 7 7 4 4 4 5 5 7 3 1 3 6 6 10 9 11 13 10 8 6 6 8 6
5 4 2 6 2 1 4 2 4 5 5 4 5 2 4 6 7 8 8 7 7 6 7 6 6 4 2 2 5 4 3 4 4 7 7 3 9 5 2 5 10 11 12 13 11 8 9 9 7
3 5 4 2 4 6 4 6 5 9 5 5 4 5 6 7 8 8 7 8 6 6 5 6 5 5 3 4 3 1 4 5 4 6 6 10 10 13 9 9 11 10 11 12 14 10 10 11 7
2 2 7 5 4 5 2 8 2 8 2 6 8 8 9 11 10 9 9 7 8 6 6 6 6 6 5 2 1 1 4 8 10 7 6 10 9 12 11 12 13 11 13 12 12 12 11 12 9
1 4 4 6 5 2 3 13 8 8 3 3 9 10 9 12 13 14 13 8 8 9 7 6 3 5 5 5 3 5 4 4 4 7 10 10 12 10 10 13 10 10 12 12 12 11 11 11 9
Wind_Direction
95 136 112 37 56 69 275 266 277 297 312 330 284 139 151 111 160 213 304 201 135 149 148 145 138 140 141 138 137 134 131 125 121 120 120 119 120 122 122 122 124 125 125 123 119 114 108 100 86
128 114 40 85 93 76 268 257 249 218 254 304 313 43 44 206 132 138 129 161 150 147 147 149 145 150 148 140 142 141 134 128 125 124 124 123 124 126 126 122 125 129 132 133 120 106 97 89 82
200 82 91 105 111 174 227 237 281 302 310 226 254 59 96 247 343 156 158 145 146 150 149 150 145 147 149 141 144 146 140 136 132 131 130 128 129 128 125 120 127 123 133 120 114 108 94 78 63
133 15 36 109 222 249 235 284 280 289 309 149 149 120 85 301 166 169 138 136 140 140 142 143 144 146 150 146 149 150 147 142 138 138 136 136 136 136 132 128 126 127 125 128 122 113 100 78 62
38 61 38 289 257 256 256 257 274 277 261 282 156 145 29 357 47 123 134 143 137 126 125 150 147 147 151 155 157 154 152 150 148 146 143 139 139 140 133 130 124 121 127 122 118 117 114 104 57
46 90 34 259 256 274 277 255 284 248 233 230 97 92 306 334 15 67 117 122 134 140 138 146 152 152 159 163 160 159 158 160 156 152 145 139 136 138 138 133 130 126 127 132 126 123 124 117 75
134 100 228 247 282 305 259 333 334 331 335 208 138 104 162 213 91 98 98 90 109 131 142 148 157 161 160 164 166 166 164 163 153 145 139 134 134 136 140 144 144 141 141 136 132 137 136 106 79
109 111 213 235 224 269 258 324 305 346 306 81 33 180 189 199 153 114 104 127 142 143 151 159 157 154 162 173 169 166 161 141 135 142 141 140 139 137 143 141 152 146 145 142 138 136 118 93 82
138 49 259 245 196 245 295 320 306 270 267 62 348 322 330 135 134 136 138 143 152 162 169 164 162 160 158 165 171 160 158 151 146 153 147 136 138 142 147 149 159 149 150 145 137 131 115 85 82
116 156 231 211 223 262 287 288 286 318 317 25 344 26 118 140 155 160 170 176 175 178 177 170 166 169 162 165 168 168 168 154 153 159 152 149 149 157 157 157 161 155 147 137 136 135 109 95 97
193 209 221 248 245 249 270 298 267 244 293 209 199 171 162 167 173 179 187 189 186 176 179 180 178 177 175 175 172 158 158 161 168 170 164 155 149 162 153 149 156 136 129 109 115 109 93 119 117
278 250 240 271 283 312 266 283 304 261 251 302 220 169 170 182 195 196 198 199 187 187 190 186 185 184 187 169 169 174 178 181 175 187 165 159 156 165 164 155 171 149 138 133 145 137 119 110 111
224 259 271 267 286 270 261 240 254 266 272 219 136 168 189 191 202 207 196 199 203 203 200 200 187 186 183 181 163 169 188 186 182 183 177 158 156 170 171 167 163 165 144 141 145 149 118 111 111
271 284 281 276 267 251 255 277 184 254 257 264 166 197 207 202 205 203 199 198 202 202 207 196 197 195 179 187 175 183 186 179 169 175 181 175 167 163 191 175 165 167 175 161 155 160 140 123 122
282 308 312 257 242 241 172 299 254 255 264 265 204 209 215 217 209 209 209 205 203 210 194 204 197 193 187 191 189 186 189 184 188 175 180 174 173 179 177 185 179 179 177 154 140 132 114 110 118
333 321 329 284 334 251 113 277 291 329 351 287 284 216 215 226 216 217 215 212 207 200 202 194 196 194 197 192 183 188 182 182 195 167 167 184 186 177 177 179 190 163 151 140 138 142 122 122 135
333 250 252 301 244 215 94 287 290 319 359 321 319 299 224 250 251 238 217 212 204 203 204 199 195 197 197 191 181 177 166 187 188 177 181 185 183 181 169 174 184 158 148 146 152 110 120 120 114
207 253 265 263 281 22 303 246 274 290 320 295 304 304 308 280 242 253 267 236 216 206 204 205 197 200 191 181 176 163 174 199 188 195 198 178 179 165 155 165 161 144 140 141 120 123 58 125 136
190 222 263 276 282 333 286 267 255 272 306 294 286 309 329 324 13 23 15 344 264 250 258 235 199 198 183 186 186 189 200 189 191 192 181 178 178 170 165 161 152 145 150 162 138 103 121 49 89
254 263 262 286 271 256 275 264 243 233 228 265 340 28 21 23 22 31 19 14 19 1 305 229 222 213 205 197 201 195 188 193 185 154 174 181 175 173 166 164 169 162 152 151 156 145 130 129 182
231 240 260 252 297 275 323 280 236 223 77 57 46 31 25 22 13 16 22 32 12 6 337 301 232 219 211 215 191 104 95 87 117 181 184 190 176 170 169 169 166 167 168 175 171 155 155 153 197
246 212 234 230 166 256 37 279 287 337 69 56 29 25 12 9 9 11 10 8 8 3 335 336 264 216 211 204 201 203 200 187 196 189 179 174 179 178 169 171 169 168 166 163 175 164 155 147 181
257 184 183 189 199 134 214 243 272 70 48 37 19 20 12 17 21 14 10 1 352 357 2 359 2 235 187 200 206 199 223 212 155 156 162 176 183 189 177 168 163 166 172 161 156 151 156 153 166
125 83 62 57 109 253 181 180 218 175 143 76 6 28 16 15 23 23 2 7 7 4 8 0 12 26 354 227 188 190 201 179 174 175 176 182 183 179 158 151 145 131 134 135 132 127 141 147 124
131 107 286 282 205 243 354 206 266 156 170 140 110 34 311 307 350 350 356 357 358 3 4 20 7 7 3 344 295 219 197 188 185 187 190 175 175 184 176 163 153 142 134 130 128 122 114 120 116
190 171 175 210 198 251 307 238 242 170 183 160 200 233 279 317 319 316 333 339 348 353 350 356 22 4 9 357 301 268 209 215 201 194 237 307 7 338 132 133 136 132 126 117 104 96 99 107 97
170 176 137 105 34 79 228 30 351 170 170 195 228 275 299 303 298 302 310 309 320 329 326 330 336 344 68 64 358 274 235 222 175 140 133 159 110 115 177 119 126 126 121 121 119 114 107 94 84
133 147 116 22 199 243 270 255 221 201 200 224 246 263 273 260 265 275 280 280 291 272 275 294 298 303 322 342 128 88 191 199 178 157 182 160 144 140 162 149 125 126 125 118 115 114 115 107 98
65 82 51 82 144 189 305 254 220 131 121 354 324 320 305 309 304 290 267 249 251 260 272 287 302 315 319 352 53 107 160 156 154 152 166 145 147 155 167 141 136 138 128 119 113 113 114 107 105
100 137 132 139 229 247 146 261 130 130 125 304 316 311 294 278 276 281 277 258 254 253 238 242 285 314 320 326 27 85 66 63 105 145 143 140 140 141 157 131 135 132 126 123 125 131 133 135 144